Flag for Switzerland Weather past 2 weeks in La-Chaux-de-Fonds, Neuchâtel, Switzerland

Now
41 °F

Broken clouds.


Feels Like: 38 °F
Forecast: 30 / 50 °F
Wind: 5 mph from North

Location: Les Eplatures

Current Time: Apr 28, 2015 at 2:37:01 PM

Latest Report: Apr 28, 2015 at 2:20 PM


Visibility: N/A

Pressure: 30.07 "Hg

Humidity: 70%

Dew point: 32 °F

Location of La-Chaux-de-FondsLocation

Historic Weather in La-Chaux-de-Fonds — Graph

°F

La-Chaux-de-Fonds temperature yesterday

Maximum temperature yesterday: 59 °F (at 1:20 PM)
Minimum temperature yesterday: 43 °F (at 11:50 PM)
Average temperature yesterday: 51 °F

Past Weeks' High & Low Weather Summary

 TemperatureHumidityPressure
High70 °F (Apr 15, 4:20 PM)100% (Apr 17, 9:20 PM)30.48 "Hg (Apr 17, 9:20 PM)
Low30 °F (Apr 20, 6:20 AM)17% (Apr 22, 12:20 PM)29.56 "Hg (Apr 27, 1:20 PM)
Average49 °F65%30.07 "Hg
* Reported Apr 13 1:20 PM — Apr 28 1:20 PM, La-Chaux-de-Fonds, Weather by CustomWeather, © 2015

Note: Actual official high and low records may vary slightly from our data, if they occured in-between our weather recording intervals... More about our weather records

Advertising

La-Chaux-de-Fonds weather history for previous 24 hours

 ConditionsComfort  
Time TempWeatherWind HumidityBarometerVisibility
1:20 PM
Tue, Apr 28
39 °FBroken clouds.3 mph81%30.07 "Hg6 mi
12:50 PM37 °FPartly sunny.6 mph81%30.07 "HgN/A
12:20 PM37 °FScattered clouds.5 mph81%30.04 "HgN/A
11:50 AM37 °FPartly sunny.5 mph81%30.04 "HgN/A
11:20 AM37 °FPartly sunny.3 mph81%30.01 "HgN/A
10:50 AM37 °FPartly sunny.3 mph81%30.01 "HgN/A
10:20 AM37 °FPartly sunny.5 mph81%30.01 "HgN/A
9:50 AM36 °FPartly sunny.6 mph87%29.98 "HgN/A
9:20 AM36 °FBroken clouds.5 mph87%29.98 "HgN/A
8:50 AM36 °FPartly sunny.5 mph87%29.95 "Hg6 mi
8:20 AM36 °FLight rain. Mostly cloudy.3 mph93%29.95 "Hg5 mi
7:50 AM36 °FLight rain. Mostly cloudy.3 mph93%29.92 "Hg5 mi
7:20 AM36 °FPartly cloudy.3 mph93%29.92 "Hg5 mi
6:50 AM36 °FLight rain. Fog.8 mph93%29.89 "Hg1 mi
6:20 AM37 °FDrizzle. Fog.9 mph93%29.86 "Hg2 mi
5:20 AM37 °FLight rain. Fog.3 mph93%29.83 "Hg2 mi
4:50 AM37 °FLight rain. Passing clouds.6 mph93%29.83 "HgN/A
4:20 AM37 °FLight rain. Passing clouds.7 mph93%29.80 "HgN/A
3:50 AM37 °FRain. Passing clouds.7 mph93%29.80 "HgN/A
3:20 AM39 °FRain. Passing clouds.8 mph87%29.77 "Hg5 mi
2:50 AM39 °FRain. Passing clouds.6 mph93%29.77 "HgN/A
2:20 AM39 °FRain. Passing clouds.8 mph93%29.77 "HgN/A
1:50 AM41 °FRain. Passing clouds.7 mph93%29.74 "HgN/A
1:20 AM41 °FRain. Passing clouds.6 mph93%29.74 "HgN/A
12:50 AM41 °FRain. Low clouds.7 mph93%29.74 "HgN/A
12:20 AM41 °FRain. Passing clouds.6 mph93%29.71 "HgN/A
11:50 PM
Mon, Apr 27
43 °FRain. Passing clouds.7 mph87%29.71 "HgN/A
11:20 PM45 °FRain. Partly cloudy.7 mph87%29.68 "HgN/A
10:50 PM46 °FRain. Passing clouds.9 mph87%29.65 "Hg6 mi
10:20 PM46 °FRain. Partly sunny.9 mph93%29.65 "HgN/A
9:50 PM48 °FHeavy rain. Broken clouds.3 mph94%29.65 "HgN/A
9:20 PM50 °FRain. Partly sunny.2 mph94%29.62 "HgN/A
8:50 PM50 °FRain. Partly sunny.1 mph94%29.62 "Hg5 mi
8:20 PM50 °FRain. Partly sunny.2 mph88%29.62 "HgN/A
7:50 PM52 °FLight rain. Cloudy.6 mph88%29.59 "Hg4 mi
7:20 PM52 °FLight rain. Broken clouds.5 mph82%29.59 "HgN/A
6:50 PM52 °FScattered showers. Broken clouds.5 mph88%29.59 "HgN/A
6:20 PM54 °FBroken clouds.5 mph77%29.59 "HgN/A
5:50 PM54 °FBroken clouds.2 mph82%29.59 "HgN/A
5:20 PM54 °FBroken clouds.6 mph77%29.59 "HgN/A
4:50 PM54 °FPartly sunny.6 mph77%29.59 "HgN/A
4:20 PM55 °FOvercast.7 mph72%29.59 "HgN/A
3:50 PM55 °FThundershowers. Broken clouds.9 mph72%29.59 "HgN/A
3:20 PM54 °FBroken clouds.10 mph77%29.59 "HgN/A
2:50 PM54 °FScattered clouds.14 mph77%29.59 "HgN/A
2:20 PM59 °FThundershowers. Scattered clouds.3 mph63%29.56 "HgN/A
Weather by CustomWeather, © 2015

See weather overviewHow to use our weather pages